Regional Weather Roundup
Issued by NWS

Home | Current Version | Previous Version | Text Only | Print | Product List | Glossary On
Versions: 1 2 3 4 5 6 7 8 9 10 11 12 13 14 15 16 17 18 19 20 21 22 23 24 25 26 27 28 29 30 31 32 33 34 35 36 37 38 39 40 41 42 43 44 45 46 47 48 49 50
384
ASUS43 KDTX 261201
RWRMI
MICHIGAN HOURLY REGIONAL WEATHER ROUNDUP
NATIONAL WEATHER SERVICE DETROIT/PONTIAC MI
800 AM EDT WED JUL 26 2017

NOTE: "FAIR" INDICATES FEW OR NO CLOUDS BELOW 12,000 FEET WITH NO
SIGNIFICANT WEATHER AND/OR OBSTRUCTION TO VISIBILITY.

MIZ047>049-052>055-059>063-066>070-074>076-081>083-261300-
SOUTHEAST LOWER MICHIGAN

CITY           SKY/WX    TMP DP  RH WIND       PRES   REMARKS
ADRIAN         MOSUNNY   60  59  96 CALM      30.17F
6HR MIN TEMP:  56; 6HR MAX TEMP:  62;

ALMA           CLOUDY    62  57  84 SE3       30.14S
ANN ARBOR      MOSUNNY   60  60 100 CALM      30.16F FOG
BAD AXE        CLOUDY    64  60  90 S8        30.15F
6HR MIN TEMP:  59; 6HR MAX TEMP:  64;

CARO           CLOUDY    63  59  88 S5        30.14F
DETROIT CITY   CLOUDY    67  61  81 S5        30.17S
6HR MIN TEMP:  62; 6HR MAX TEMP:  67;

DETROIT        CLOUDY    66  60  81 S5        30.17S
6HR MIN TEMP:  61; 6HR MAX TEMP:  66;

FLINT          CLOUDY    63  60  90 S6        30.15F
6HR MIN TEMP:  56; 6HR MAX TEMP:  63;

GROSSE ILE     PTSUNNY   67  61  81 W5        30.16S
6HR MIN TEMP:  65; 6HR MAX TEMP:  70;

HILLSDALE      CLOUDY    59  57  94 S3        30.17R
HOWELL         PTSUNNY   63  59  89 S6        30.16S
6HR MIN TEMP:  57; 6HR MAX TEMP:  63;


CITY           SKY/WX    TMP DP  RH WIND       PRES   REMARKS
JACKSON        CLOUDY    64  59  83 S7        30.15F
6HR MIN TEMP:  58; 6HR MAX TEMP:  64;

LAMBERTVILLE   MOSUNNY   62  61  96 CALM      30.16S
6HR MIN TEMP:  56; 6HR MAX TEMP:  62;

LANSING        CLOUDY    64  57  78 S8        30.14F
6HR MIN TEMP:  62; 6HR MAX TEMP:  65;

LAPEER         FAIR      63  61  94 CALM      30.17F
6HR MIN TEMP:  55; 6HR MAX TEMP:  63;

MASON          PTSUNNY   61  59  95 S7        30.14F
MONROE         MOSUNNY   64  60  90 CALM      30.16S
6HR MIN TEMP:  57; 6HR MAX TEMP:  64;

MT. CLEMENS    CLOUDY    68  62  81 SE8       30.15S
6HR MIN TEMP:  62; 6HR MAX TEMP:  68;

PONTIAC        CLOUDY    64  60  87 S3        30.15F
6HR MIN TEMP:  60; 6HR MAX TEMP:  65;

PORT HOPE        N/A     65  60  84 S6        30.13S
6HR MIN TEMP:  62; 6HR MAX TEMP:  65;

PORT HURON     CLOUDY    64  61  88 CALM      30.18R
TRI CITIES     CLOUDY    64  61  90 S9        30.14S
6HR MIN TEMP:  64; 6HR MAX TEMP:  65;

MIDLAND        FAIR      64  58  79 S6        30.12S
6HR MIN TEMP:  57; 6HR MAX TEMP:  65;

TROY           CLOUDY    65  60  84 CALM      30.18F
SAGINAW HB     CLOUDY    63  59  88 S6        30.14S
$$
MIZ043>046-050>051-056>058-064>065-071>073-077>080-261300-
SOUTHWEST LOWER MICHIGAN

CITY           SKY/WX    TMP DP  RH WIND       PRES   REMARKS
BATTLE CREEK   CLOUDY    63  60  90 S6        30.16R
6HR MIN TEMP:  61; 6HR MAX TEMP:  66;

BENTON HARBOR  CLOUDY    66  59  78 S5        30.12S
6HR MIN TEMP:  61; 6HR MAX TEMP:  66;

BIG RAPIDS     CLOUDY    65  57  76 CALM      30.13R
6HR MIN TEMP:  60; 6HR MAX TEMP:  65;

COLDWATER      MOSUNNY   62  62  97 SE6       30.16R
6HR MIN TEMP:  59; 6HR MAX TEMP:  62;

FREMONT        PTSUNNY   63  59  87 S3        30.10R
HOLLAND        PTSUNNY   64  59  83 S7        30.11F
6HR MIN TEMP:  61; 6HR MAX TEMP:  66;

GRAND RAPIDS   CLOUDY    64  60  87 S5        30.13S
6HR MIN TEMP:  63; 6HR MAX TEMP:  67; 6HR PCP: TRACE;

IONIA          FAIR      64  58  81 S7        30.12F
6HR MIN TEMP:  61; 6HR MAX TEMP:  66;

KALAMAZOO      CLOUDY    65  58  78 S7        30.15S
6HR MIN TEMP:  63; 6HR MAX TEMP:  66;

LUDINGTON      LGT RAIN  67  65  90 S12       30.07F
6HR MIN TEMP:  65; 6HR MAX TEMP:  67; 6HR PCP:  0.01;

MARSHALL       CLOUDY    63  61  93 CALM      30.14F
6HR MIN TEMP:  59; 6HR MAX TEMP:  63;

MOUNT PLEASANT PTSUNNY   65  56  73 S5        30.11F
6HR MIN TEMP:  64; 6HR MAX TEMP:  68;

MUSKEGON       CLOUDY    69  61  75 S7        30.10R
6HR MIN TEMP:  67; 6HR MAX TEMP:  71;

SOUTH HAVEN    CLOUDY    65  62  89 S3        30.12S
$$
MIZ016>042-261300-
NORTHERN LOWER MICHIGAN

CITY           SKY/WX    TMP DP  RH WIND       PRES   REMARKS
ALPENA         LGT RAIN  63  62  97 S5        30.11R
6HR MIN TEMP:  61; 6HR MAX TEMP:  67; 6HR PCP:  0.11;

BEAVER ISLAND  CLOUDY    64  62  91 S10G18    29.98F
6HR MIN TEMP:  64; 6HR MAX TEMP:  69;

BELLAIRE       CLOUDY    62  60  92 SE5       30.06F
6HR MIN TEMP:  62; 6HR MAX TEMP:  67;

CADILLAC       CLOUDY    67  57  71 S5        30.10R
CHARLEVOIX     CLOUDY    63  63  99 SE9       30.05F
FRANKFORT      LGT RAIN  70  64  83 S13G23    30.03F
GAYLORD        TSTM      61  57  87 SW13      30.09F FOG
6HR MIN TEMP:  61; 6HR MAX TEMP:  68; 6HR PCP:  0.32;

GRAYLING       HVY RAIN  61  57  88 S5        30.12F
6HR MIN TEMP:  61; 6HR MAX TEMP:  67;

HARBOR SPRINGS LGT RAIN  62  61  95 SW7       30.04F
HOUGHTON LAKE  CLOUDY    63  59  87 SE3       30.14F
6HR MIN TEMP:  63; 6HR MAX TEMP:  67; 6HR PCP:  0.01;

MANISTEE       CLOUDY    65  62  90 CALM      30.05F
OSCODA         LGT RAIN  65  57  74 SW6       30.12S
6HR MIN TEMP:  64; 6HR MAX TEMP:  68;

PELLSTON       CLOUDY    63  61  93 S8        30.04F
6HR MIN TEMP:  63; 6HR MAX TEMP:  66; 6HR PCP:  0.11;

ROGERS CITY    RAIN      63  59  86 SW13G18   30.08R
TRAVERSE CITY  CLOUDY    66  61  84 S6        30.02F
6HR MIN TEMP:  64; 6HR MAX TEMP:  69; 6HR PCP:  0.18;

$$
MIZ007>008-015-261300-
EASTERN UPPER MICHIGAN

CITY           SKY/WX    TMP DP  RH WIND       PRES   REMARKS
KINROSS        LGT RAIN  63  62  97 SW13G18   30.00S
6HR MIN TEMP:  62; 6HR MAX TEMP:  65;

MACKINAC ISLAN CLOUDY    64  64 100 S12G18    30.01S
6HR MIN TEMP:  63; 6HR MAX TEMP:  67; 6HR PCP:  0.14;

NEWBERRY       CLOUDY    63  62  97 S14G21    29.96F
6HR MIN TEMP:  61; 6HR MAX TEMP:  66; 6HR PCP:  0.15;

S. S. MARIE    CLOUDY    65  62  90 S8        29.98F
6HR MIN TEMP:  62; 6HR MAX TEMP:  66; 6HR PCP:  0.51;

MUNISING         N/A     68  66  93 SW9       29.91F
6HR MIN TEMP:  67; 6HR MAX TEMP:  69;

$$
MIZ004>006-011>014-085-261300-
CENTRAL UPPER MICHIGAN

CITY           SKY/WX    TMP DP  RH WIND       PRES   REMARKS
MANISTIQUE     CLOUDY    66  63  89 S12G21    29.94F
6HR MIN TEMP:  64; 6HR MAX TEMP:  68; 6HR PCP:  0.10;

ESCANABA       CLOUDY    66  64  93 SW6       29.96R
6HR MIN TEMP:  66; 6HR MAX TEMP:  69; 6HR PCP:  0.04;

MENOMINEE      CLOUDY    66  64  93 VRB6      29.98R
6HR MIN TEMP:  66; 6HR MAX TEMP:  71; 6HR PCP:  0.03;

SAWYER-GWINN   PTSUNNY   64  63  94 W7        29.95R
$$
MIZ001>003-009>011-084-261300-
WESTERN UPPER MICHIGAN

CITY           SKY/WX    TMP DP  RH WIND       PRES   REMARKS
IRON MOUNTAIN  CLOUDY    70  65  84 SW3       29.96R
6HR MIN TEMP:  66; 6HR MAX TEMP:  70; 6HR PCP: TRACE;

HOUGHTON       PTSUNNY   69  65  86 W12       29.91R
6HR MIN TEMP:  68; 6HR MAX TEMP:  73; 6HR PCP:  0.14;

COPPER HARBOR    N/A     71  65  81 VRB7      29.87R
6HR MIN TEMP:  68; 6HR MAX TEMP:  73;

IRONWOOD       CLOUDY    70  68  93 W7        29.98R
6HR MIN TEMP:  69; 6HR MAX TEMP:  72; 6HR PCP: TRACE;

$$

ABBREVIATIONS USED IN REMARKS
   TC - TEMPERATURE IN CELSIUS
  WCI - WIND CHILL INDEX
   HX - HEAT INDEX
  VSB - VISIBILITY





USA.gov is the U.S. government's official web portal to all federal, state and local government web resources and services.